Wind_Speed
3 2 2 3 3 3 4 4 4 5 5 5 5 6 6 5 5 5 4 4 4 5 5 5 5 5 6 5 5 5 6 5 5 4 5 5 5 5 5 5 4 4 4
2 2 3 3 4 4 3 4 4 4 5 5 5 5 5 4 4 5 6 5 5 6 6 7 7 7 7 7 7 7 7 6 6 6 6 5 5 6 6 5 5 5 5
1 2 2 3 3 3 3 4 4 4 5 5 5 5 6 6 5 6 6 6 7 7 7 7 7 8 8 9 9 8 7 7 6 6 6 6 6 5 5 6 6 6 6
1 2 2 2 3 3 4 4 4 4 5 5 5 6 7 7 7 7 7 7 8 8 8 9 9 9 9 9 9 9 9 8 8 8 8 7 6 6 6 7 7 7 8
2 2 3 3 3 4 4 4 5 5 5 5 6 6 7 8 8 8 8 9 8 9 10 10 10 9 10 10 10 10 10 10 10 9 9 8 8 8 8 8 8 8 8
3 4 4 4 4 5 5 5 5 6 6 6 7 7 7 8 9 8 8 9 9 9 10 10 11 11 11 11 11 11 11 11 11 11 10 9 9 9 9 9 9 9 9
4 4 4 4 4 5 5 5 6 6 6 7 8 8 8 9 9 10 9 9 10 10 10 11 11 11 11 11 10 11 11 11 12 11 11 11 11 11 11 11 11 11 11
5 5 6 5 6 6 6 7 7 7 7 7 9 9 9 9 10 10 10 10 10 10 11 11 11 11 12 12 12 11 11 11 11 11 12 12 12 12 12 12 12 12 12
6 6 7 7 7 8 8 8 9 9 9 10 10 10 11 11 10 10 10 10 10 10 11 11 12 11 12 12 13 13 13 13 13 12 12 12 13 13 13 13 13 13 14
8 8 8 8 8 8 9 9 9 10 10 11 12 12 12 12 12 11 11 11 12 12 11 11 12 12 12 13 14 14 14 14 14 13 13 13 13 14 14 14 14 14 14
10 10 9 9 9 9 10 10 10 11 12 12 13 13 13 14 13 13 12 13 12 13 12 12 12 12 12 12 13 13 14 14 14 14 14 14 14 14 14 15 14 14 15
11 11 11 11 10 11 11 12 12 13 13 13 14 14 15 15 15 15 15 14 14 14 13 13 13 13 12 13 13 14 14 14 14 15 15 16 16 16 16 15 15 15 15
12 12 11 12 12 12 13 13 14 14 14 15 15 15 15 15 16 16 15 15 15 15 15 15 14 14 13 13 14 14 15 16 16 16 17 17 17 17 17 17 17 17 16
13 13 13 13 14 14 14 14 14 15 15 16 16 17 17 17 17 17 17 17 16 16 16 15 15 14 14 14 15 15 16 17 17 18 18 19 19 19 19 18 18 18 18
14 14 14 15 15 15 15 16 16 16 16 16 16 17 18 19 19 19 18 18 18 18 17 17 16 16 16 16 16 16 17 18 19 20 20 20 20 21 21 21 21 21 20
15 16 16 16 16 16 16 16 16 16 16 17 18 19 20 20 20 20 19 19 20 20 18 17 17 17 17 17 17 18 19 20 21 21 22 22 23 23 23 23 23 22 22
17 17 17 17 17 17 17 16 16 16 17 17 18 19 20 21 21 21 21 21 21 20 19 19 19 19 19 20 21 21 21 22 22 23 23 24 24 24 24 24 24 24 23
18 18 18 19 19 19 18 17 17 18 18 18 19 19 20 21 21 22 22 22 21 21 20 21 21 21 22 22 23 23 23 23 23 24 25 25 25 25 25 25 25 25 25
20 19 20 20 20 20 20 20 19 18 19 19 20 20 20 21 21 22 22 22 22 22 22 22 23 23 24 24 25 25 25 25 25 25 25 25 26 26 27 27 26 26 26
21 20 20 20 20 20 21 21 21 21 21 21 21 21 21 22 22 22 22 22 23 23 24 24 24 25 25 26 27 27 27 27 27 26 26 27 27 27 28 28 28 28 28
22 22 22 21 21 21 21 22 23 23 23 23 23 23 23 23 23 23 23 24 24 24 25 25 25 26 26 27 27 27 27 27 28 28 28 29 29 29 29 29 29 29 29
25 24 24 24 24 24 24 24 25 25 25 26 25 25 25 25 24 24 25 25 25 26 26 26 26 26 26 27 28 28 29 29 28 29 30 30 31 30 29 29 30 30 30
27 27 27 27 27 26 26 27 27 27 28 28 28 28 27 27 27 27 27 27 27 27 27 28 28 27 28 29 30 30 30 31 30 30 30 30 30 30 29 30 30 30 30
29 29 29 29 29 29 29 29 29 30 30 30 30 30 30 29 29 30 30 30 29 29 29 30 30 30 30 30 30 31 31 31 31 31 31 30 30 30 30 30 30 31 31
32 31 30 30 31 31 31 31 31 31 31 32 31 31 32 32 32 32 32 31 31 31 31 31 31 31 31 31 31 32 32 32 31 31 32 31 30 31 31 31 31 31 32
32 32 32 32 33 32 32 32 32 32 32 32 32 32 32 32 32 32 33 33 32 32 32 32 32 32 32 32 33 33 33 33 33 32 33 33 32 32 31 32 32 32 32
Wind_Direction
178 180 185 194 199 199 205 213 220 222 227 226 228 239 250 246 231 228 233 247 258 262 263 264 265 264 266 267 275 283 286 286 294 295 302 305 297 291 294 296 305 314 314
180 193 205 216 225 228 225 217 228 240 242 243 241 245 247 246 239 242 246 254 260 264 264 263 264 266 267 267 267 274 280 276 281 289 292 299 301 298 292 297 296 300 304
238 239 230 234 241 244 238 236 242 247 255 255 253 250 248 250 249 256 256 255 261 264 266 266 266 266 268 268 268 269 270 269 275 283 289 296 303 299 294 296 297 301 302
281 267 260 253 258 252 249 249 258 258 262 264 268 261 254 252 256 258 263 264 262 264 267 268 268 267 268 269 270 270 268 271 274 282 287 289 294 297 297 294 295 296 300
312 293 284 285 282 265 261 255 257 261 265 270 274 277 275 272 273 271 265 266 264 265 265 263 267 267 267 268 271 272 274 273 278 280 283 285 290 296 298 295 294 295 295
324 309 300 305 295 282 274 269 268 268 269 273 278 279 280 281 281 280 279 273 264 266 266 265 268 268 268 268 268 269 272 274 278 277 278 282 288 294 296 296 293 292 290
320 308 294 295 295 290 284 279 286 284 280 281 281 280 284 285 281 278 279 276 269 271 271 268 270 268 267 265 267 272 271 274 276 272 274 279 284 289 291 294 291 291 290
312 308 296 290 292 294 286 283 282 283 283 283 285 284 285 287 288 284 281 278 280 280 279 280 275 273 269 266 266 269 270 278 279 277 276 277 279 284 287 288 287 288 289
314 306 300 296 294 296 295 290 282 283 283 286 287 285 286 285 286 284 282 280 281 282 282 281 279 277 270 267 266 266 268 272 274 275 278 280 279 279 283 284 284 286 288
316 310 303 297 292 292 292 293 288 288 291 292 293 291 291 288 286 284 285 286 287 288 287 282 278 276 273 269 267 268 269 272 273 274 275 278 282 282 281 280 280 282 286
314 310 305 302 300 298 296 296 297 292 291 290 292 292 289 286 284 284 285 286 290 292 289 284 279 275 274 272 271 270 269 270 272 274 276 277 279 284 285 282 282 283 284
311 309 304 301 301 302 301 297 294 293 291 291 292 290 288 285 284 284 284 284 288 289 290 288 285 279 275 273 276 275 272 272 272 274 275 277 279 280 282 284 284 286 286
304 303 298 297 297 299 300 297 293 293 292 291 290 291 291 288 285 284 284 282 284 287 286 286 285 282 277 277 277 276 274 273 272 273 274 276 276 278 280 281 283 284 286
300 298 294 294 295 296 297 297 295 294 294 293 292 291 291 288 285 285 285 284 283 284 285 284 285 284 282 281 278 277 276 276 275 275 276 277 277 278 278 278 281 283 285
302 300 295 295 296 295 293 292 293 294 294 294 294 293 294 291 288 285 286 285 285 284 282 282 283 284 284 283 283 282 279 278 277 276 278 278 277 276 276 277 279 282 285
300 298 297 298 295 294 294 290 289 292 293 293 293 293 293 291 289 286 285 284 284 284 280 279 280 281 283 283 283 283 281 279 279 279 279 278 277 275 276 276 278 280 284
297 298 297 297 298 294 290 290 290 291 291 293 295 296 293 289 288 285 283 283 285 283 279 278 277 279 281 283 283 282 282 280 280 279 278 276 275 275 276 276 277 279 281
296 296 298 297 296 296 293 291 291 290 290 292 295 297 294 289 287 284 281 281 282 282 280 279 278 279 281 283 283 282 284 283 281 279 278 276 274 274 274 276 277 278 279
297 296 296 295 293 293 291 290 289 289 292 293 294 295 294 293 290 285 283 282 281 281 280 280 280 281 281 283 282 282 284 284 282 282 280 277 275 274 273 275 275 276 278
294 294 293 293 292 292 291 289 289 289 291 292 293 293 293 293 291 288 287 285 283 283 281 281 281 280 281 282 282 281 281 283 282 282 281 279 276 274 273 273 274 275 277
291 291 291 291 291 291 291 289 287 286 288 289 289 288 289 290 289 288 287 286 285 284 284 282 283 282 283 283 282 281 282 282 281 282 282 281 278 275 274 273 273 274 276
288 288 288 288 289 288 288 287 285 286 287 287 287 287 287 287 287 287 286 286 285 285 284 283 284 284 283 283 282 283 283 283 283 283 283 282 280 278 277 274 273 274 276
287 287 286 285 285 285 286 286 285 285 286 287 286 286 285 285 285 285 285 285 285 285 285 285 285 285 285 284 284 284 284 284 285 285 284 283 283 281 278 277 275 275 275
286 286 285 284 283 283 283 283 283 284 285 285 285 284 284 284 284 284 285 285 285 286 286 286 285 285 285 286 286 285 284 284 284 285 285 284 283 282 279 277 276 276 276
284 283 284 284 283 283 282 282 283 283 285 285 284 282 282 281 283 284 285 284 284 286 286 286 285 286 286 286 285 285 284 284 284 284 283 283 282 281 279 278 277 276 277
283 283 283 283 284 284 282 281 282 282 283 283 282 282 282 282 282 283 283 284 284 284 285 285 285 286 285 285 285 285 285 283 283 284 283 281 281 280 278 278 278 277 277
Height
5887 5888 5889 5890 5891 5892 5893 5893 5894 5894 5895 5896 5897 5897 5898 5898 5899 5900 5900 5901 5902 5902 5903 5903 5904 5904 5904 5905 5905 5905 5905 5906 5906 5906 5905 5905 5905 5905 5905 5905 5904 5904 5904
5887 5888 5889 5890 5891 5892 5892 5893 5894 5894 5895 5896 5896 5897 5897 5898 5898 5899 5899 5900 5901 5901 5902 5902 5902 5903 5903 5903 5904 5904 5904 5904 5905 5905 5904 5904 5904 5904 5904 5903 5903 5903 5903
5888 5888 5889 5890 5891 5891 5892 5893 5894 5894 5895 5895 5896 5896 5896 5897 5897 5898 5898 5899 5899 5900 5900 5900 5901 5901 5901 5902 5902 5902 5903 5903 5903 5903 5903 5903 5903 5903 5902 5902 5902 5902 5901
5888 5889 5889 5890 5890 5891 5892 5892 5893 5894 5894 5894 5895 5895 5895 5896 5896 5896 5897 5897 5898 5898 5898 5899 5899 5899 5900 5900 5900 5901 5901 5902 5902 5902 5902 5902 5902 5901 5901 5901 5900 5900 5900
5889 5889 5890 5890 5890 5891 5891 5892 5892 5893 5893 5893 5894 5894 5894 5894 5895 5895 5895 5895 5896 5896 5896 5896 5897 5897 5898 5898 5899 5899 5900 5900 5900 5900 5900 5900 5900 5900 5899 5899 5899 5899 5898
5889 5889 5890 5890 5890 5890 5890 5891 5891 5892 5892 5892 5892 5893 5893 5893 5893 5893 5893 5893 5893 5894 5894 5894 5895 5895 5895 5896 5897 5897 5897 5898 5898 5898 5898 5898 5898 5898 5897 5897 5897 5896 5896
5889 5889 5889 5889 5889 5889 5889 5889 5890 5890 5890 5891 5891 5891 5891 5891 5891 5891 5891 5891 5891 5891 5891 5892 5892 5893 5893 5893 5894 5894 5894 5895 5895 5895 5895 5895 5895 5895 5895 5895 5894 5894 5894
5889 5889 5889 5889 5889 5888 5888 5888 5889 5889 5889 5889 5889 5889 5889 5890 5889 5889 5888 5888 5888 5888 5889 5889 5890 5890 5890 5890 5891 5891 5892 5892 5892 5892 5892 5892 5892 5892 5892 5892 5891 5891 5891
5888 5888 5888 5888 5887 5887 5887 5887 5887 5887 5887 5887 5887 5887 5887 5887 5887 5887 5886 5886 5886 5886 5886 5886 5887 5887 5887 5887 5888 5888 5889 5889 5889 5889 5889 5889 5889 5889 5889 5889 5888 5888 5887
5888 5887 5886 5886 5886 5886 5886 5885 5885 5885 5885 5885 5885 5884 5884 5884 5884 5884 5884 5884 5884 5883 5884 5884 5884 5884 5884 5884 5885 5885 5885 5886 5886 5886 5886 5886 5886 5885 5885 5885 5885 5884 5884
5887 5886 5886 5885 5885 5884 5884 5884 5884 5884 5883 5883 5883 5882 5882 5882 5882 5882 5882 5882 5881 5881 5880 5881 5881 5881 5881 5881 5882 5882 5882 5882 5882 5882 5883 5882 5882 5882 5881 5881 5881 5880 5880
5885 5885 5884 5883 5883 5882 5882 5882 5881 5881 5881 5881 5880 5880 5879 5879 5879 5879 5879 5879 5878 5878 5878 5878 5878 5878 5878 5878 5878 5878 5878 5878 5879 5879 5879 5879 5878 5878 5878 5877 5877 5876 5876
5883 5882 5881 5881 5880 5880 5880 5879 5878 5878 5878 5877 5877 5876 5876 5875 5875 5875 5875 5875 5875 5875 5874 5874 5874 5874 5874 5874 5875 5874 5874 5875 5875 5875 5874 5874 5874 5874 5873 5873 5873 5872 5872
5881 5880 5879 5877 5877 5877 5876 5876 5875 5875 5874 5874 5873 5873 5872 5872 5872 5871 5871 5871 5871 5871 5871 5871 5870 5870 5870 5870 5870 5870 5870 5870 5870 5870 5870 5870 5869 5869 5869 5869 5868 5868 5867
5878 5877 5876 5875 5874 5873 5873 5872 5872 5871 5870 5870 5869 5869 5868 5868 5867 5867 5866 5866 5867 5867 5867 5866 5866 5866 5866 5866 5866 5866 5866 5865 5865 5865 5865 5864 5864 5864 5864 5864 5863 5863 5862
5875 5874 5873 5872 5871 5869 5869 5868 5867 5867 5866 5866 5865 5864 5863 5863 5862 5862 5861 5861 5862 5862 5862 5862 5862 5861 5861 5861 5860 5860 5860 5860 5859 5859 5859 5858 5858 5858 5858 5858 5857 5857 5857
5871 5870 5869 5868 5866 5865 5864 5863 5863 5863 5862 5861 5860 5859 5858 5857 5857 5857 5857 5856 5856 5856 5856 5857 5856 5856 5856 5856 5855 5855 5854 5854 5854 5853 5853 5852 5852 5851 5851 5851 5851 5851 5850
5867 5866 5865 5864 5862 5861 5860 5859 5859 5858 5857 5856 5855 5854 5853 5852 5852 5851 5851 5851 5851 5851 5851 5851 5851 5850 5850 5850 5849 5848 5848 5847 5847 5847 5846 5845 5845 5844 5844 5844 5844 5844 5843
5863 5861 5860 5859 5858 5857 5855 5854 5854 5853 5853 5852 5851 5849 5848 5847 5846 5845 5845 5845 5845 5844 5845 5845 5845 5844 5844 5843 5842 5841 5841 5840 5840 5839 5838 5837 5837 5836 5837 5837 5836 5836 5836
5858 5856 5855 5854 5853 5852 5851 5849 5848 5848 5848 5846 5845 5844 5843 5842 5841 5840 5839 5839 5838 5838 5838 5838 5838 5837 5837 5836 5835 5834 5833 5833 5832 5831 5830 5830 5829 5829 5828 5828 5828 5828 5828
5852 5851 5850 5849 5848 5847 5845 5844 5843 5843 5842 5841 5840 5839 5837 5836 5835 5834 5833 5832 5832 5832 5831 5831 5830 5830 5829 5828 5827 5826 5825 5825 5824 5823 5822 5821 5821 5820 5820 5819 5819 5819 5819
5846 5845 5844 5843 5842 5841 5839 5838 5837 5836 5835 5834 5833 5832 5831 5830 5828 5827 5827 5826 5825 5825 5824 5823 5822 5822 5821 5820 5819 5818 5817 5816 5816 5815 5814 5813 5812 5811 5811 5811 5810 5810 5810
5839 5838 5837 5835 5835 5834 5833 5831 5830 5829 5828 5827 5826 5824 5823 5822 5821 5820 5819 5819 5818 5817 5816 5815 5815 5814 5813 5812 5811 5810 5809 5808 5807 5806 5805 5804 5803 5802 5802 5802 5801 5801 5801
5831 5830 5829 5827 5827 5826 5825 5823 5822 5821 5820 5819 5817 5816 5815 5815 5813 5812 5812 5811 5810 5809 5808 5807 5806 5805 5804 5803 5802 5801 5800 5799 5798 5796 5795 5795 5794 5793 5793 5793 5792 5792 5792
5823 5822 5820 5819 5818 5817 5816 5815 5814 5813 5811 5810 5809 5808 5806 5806 5805 5804 5803 5802 5801 5800 5799 5798 5797 5796 5795 5794 5793 5792 5791 5790 5788 5787 5786 5785 5785 5784 5784 5783 5783 5783 5783
5814 5813 5812 5811 5809 5808 5807 5806 5805 5803 5802 5801 5800 5798 5797 5796 5795 5794 5794 5793 5792 5791 5790 5789 5788 5787 5786 5785 5783 5782 5781 5780 5779 5778 5776 5775 5775 5775 5775 5774 5774 5773 5773